Regional Weather Roundup
Issued by NWS

Home | Current Version | Previous Version | Text Only | Print | Product List | Glossary On
Versions: 1 2 3 4 5 6 7 8 9 10 11 12 13 14 15 16 17 18 19 20 21 22 23 24 25 26 27 28 29 30 31 32 33 34 35 36 37 38 39 40 41 42 43 44 45 46 47 48 49 50
000
ASUS43 KDMX 261107
RWRIA

WEATHER ROUNDUP FOR IOWA
NATIONAL WEATHER SERVICE DES MOINES IA
500 AM CST WED NOV 26 2014

NOTE: "FAIR" INDICATES FEW OR NO CLOUDS BELOW 12,000 FEET WITH NO
SIGNIFICANT WEATHER AND/OR OBSTRUCTIONS TO VISIBILITY.

* - THESE STATIONS ARE NOT NWS STATIONS...THUS NOT UNDER NWS
QUALITY CONTROL.  THEY ALSO DO NOT REPORT WEATHER SUCH
AS PRECIPITATION OR FOG.

IAZ001>003-012>014-020>022-031>034-043>046-261200-
   NORTHWEST IOWA

CITY           SKY/WX    TMP DP  RH WIND       PRES   REMARKS
CARROLL *      CLOUDY    32  30  93 SE10      29.83S WCI  24
CHEROKEE *     CLOUDY    32  32 100 E3        29.84S
DENISON *      LGT SNOW  32  32 100 NE3       29.80S
LE MARS *      LGT SNOW  32  32 100 N6        29.85R WCI  26
ORANGE CITY *  LGT SNOW  32  30  93 NE6       29.84R WCI  26
SHELDON *      MIX PCPN  28  28 100 E10       29.85R WCI  19
SIOUX CITY     LGT RAIN  36  33  89 NW18G25   29.84S WCI  26
SPENCER        MIX PCPN  28  26  92 E8        29.87R FOG     WCI  20
STORM LAKE *   LGT SNOW  28  28 100 E9        29.84S WCI  20
$$

IAZ055>058-069>071-079>083-090>094-261200-
   SOUTHWEST IOWA

CITY           SKY/WX    TMP DP  RH WIND       PRES   REMARKS
ATLANTIC *     CLOUDY    34  32  93 S6        29.80S WCI  29
AUDUBON *      LGT SNOW  30  27  86 SE3       29.82S
CLARINDA *     CLOUDY    36  34  93 W7        29.86S WCI  30
COUNCIL BLFS * CLOUDY    37  37 100 NW12      29.82R WCI  30
CRESTON *      CLOUDY    32  32 100 S14G21    29.82F FOG     WCI  22
HARLAN  *      CLOUDY    34  34 100 NW8       29.84R WCI  27
LAMONI         LGT SNOW  30  29  96 S10       29.85F FOG     WCI  21
RED OAK *      CLOUDY    36  34  93 W10       29.83S WCI  28
SHENANDOAH *   CLOUDY    39  36  87 W10       29.86S WCI  32
$$

IAZ047>049-059>061-072>074-084-261200-
   CENTRAL IOWA

CITY           SKY/WX    TMP DP  RH WIND       PRES   REMARKS
AMES           LGT SNOW  27  24  89 SE10      29.89F FOG     WCI  17
ANKENY *       LGT SNOW  28  27  93 E9        29.89F WCI  20
CHARITON *     MIX PCPN  32  23  69 SE9G16    29.88F WCI  24
DES MOINES     LGT SNOW  30  27  88 SE12      29.88F VSB 3/4 WCI  20
GRINNELL*      MOCLDY    27  21  80 E10       29.94F WCI  17
KNOXVILLE *    CLOUDY    30  21  69 E9        29.90F WCI  22
MARSHALLTOWN   CLOUDY    27  20  75 SE13      29.94F WCI  16
PELLA *        CLOUDY    28  21  74 SE9       29.94F WCI  20
PERRY *        LGT SNOW  32  32 100 E13       29.85F WCI  22
$$

IAZ004>006-015-016-023>025-035-036-261200-
   NORTH CENTRAL IOWA

CITY           SKY/WX    TMP DP  RH WIND       PRES   REMARKS
ALGONA *       LGT SNOW  27  27 100 SE15G22   29.89R VSB 1   WCI  15
CLARION *      LGT SNOW  27  27 100 SE17      29.90F WCI  14
ESTHERVILLE    LGT SNOW  25  24  96 SE8       29.89R FOG     WCI  16
FORT DODGE *   CLOUDY    27  21  80 SE10      29.89R WCI  17
MASON CITY     LGT SNOW  24  20  84 SE14      29.95F FOG     WCI  12
FOREST CITY *  LGT SNOW  27  27 100 SE12G18   29.92S WCI  16
IOWA FALLS *   CLOUDY    27  23  86 E14       29.93F WCI  15
$$

IAZ007>011-017>019-026>030-037>042-050>054-066-261200-
   NORTHEAST IOWA

CITY           SKY/WX    TMP DP  RH WIND       PRES   REMARKS
CEDAR RAPIDS   CLOUDY    23  21  92 E8        30.02S WCI  14
CHARLES CITY * FLURRIES  25  21  86 E16       29.99F WCI  12
CLINTON *      MOCLDY    16  12  86 E7        30.10F WCI   6
DECORAH *      CLOUDY    19  16  86 SE9       30.01F WCI   9
DUBUQUE        PTCLDY    17  16  95 SE8       30.05F WCI   7
MONTICELLO *   PTCLDY    21  19  93 E9        30.04F WCI  11
OELWEIN *      CLOUDY    23  19  86 SE13      30.03R WCI  11
WATERLOO       CLOUDY    23  20  88 E12       29.99F WCI  12
$$

IAZ064-065-067-068-078-261200-
   EAST CENTRAL IOWA

CITY           SKY/WX    TMP DP  RH WIND       PRES   REMARKS
DAVENPORT      CLOUDY    18  15  88 E8        30.07F WCI   8
IOWA CITY      CLOUDY    22  20  92 E7        30.05S WCI  13
MT. PLEASANT * MOCLDY    25  21  86 SE8       30.02F WCI  16
MUSCATINE *    MOCLDY    19  18  93 CALM      30.07S
QUAD CITIES    CLOUDY    17  14  88 E7        30.08S WCI   8
$$

IAZ062-063-075>077-085>089-095>099-261200-
   SOUTHEAST IOWA

CITY           SKY/WX    TMP DP  RH WIND       PRES   REMARKS
BURLINGTON     MOCLDY    27  23  85 SE7       30.04F WCI  19
FAIRFIELD *    PTCLDY    25  21  86 SE9       29.99F WCI  15
FORT MADISON * PTCLDY    28  25  86 SE6       30.03F WCI  22
KEOKUK *       MOCLDY    28  23  80 SE7       30.02F WCI  21
OSKALOOSA *    CLOUDY    27  23  86 SE12      29.96F WCI  16
CENTERVILLE *  CLEAR     32  21  64 SE8       29.92F WCI  25
OTTUMWA        CLOUDY    27  20  75 SE10      29.95F WCI  17
WASHINGTON *   MOCLDY    25  25 100 E8        30.01F WCI  16
$$

ABBREVIATIONS USED IN REMARKS
   TC - TEMPERATURES IN CELSIUS
  WCI - WIND CHILL INDEX
   HX - HEAT INDEX
  VSB - VISIBILITY
$$




USA.gov is the U.S. government's official web portal to all federal, state and local government web resources and services.